Location: Melbourne
(37.8170°S, 144.9670°E)
Time: 19:12:32
(UTC+10:00)

CZ-3 R/B - Visible Passes

Search period start: 23 July 2016 00:00
Search period end: 02 August 2016 00:00
Orbit: 216 x 10905 km, 28.5° (Epoch: 22 July)

Date Brightness Start Highest point End Pass type
(mag) Time Alt. Az. Time Alt. Az. Time Alt. Az.
23 Jul 5.7 16:33:03 10° NW 16:52:12 62° NNE 18:13:35 10° E visible
23 Jul 6.4 20:24:36 10° W 21:19:27 70° NNW 21:57:37 52° NE visible
24 Jul 6.0 00:40:01 10° WSW 02:22:58 15° NNW 02:27:13 10° N visible
24 Jul 6.0 17:51:06 10° WNW 18:18:07 72° N 19:36:03 21° ENE visible
24 Jul 6.3 21:47:35 10° W 22:54:31 58° NW 23:12:28 55° NNW visible
25 Jul 6.1 02:35:09 10° W 03:36:32 - NW 02:48:54 12° W visible
25 Jul 6.3 19:10:14 10° W 19:49:20 73° N 20:50:49 36° ENE visible
25 Jul 6.1 23:13:58 10° W 00:24:02 43° NW 01:16:55 10° NNE visible
26 Jul 5.6 16:38:55 10° WNW 16:57:34 66° NNE 18:19:24 10° E visible
26 Jul 6.4 20:30:40 10° W 21:24:05 67° NNW 22:05:29 48° NNE visible
27 Jul 6.2 00:48:11 10° W 02:26:39 13° NNW 02:29:39 10° NNW visible
27 Jul 6.0 17:56:30 10° WNW 18:23:06 73° N 19:43:42 19° ENE visible
27 Jul 6.3 21:53:04 10° W 22:57:01 54° NW 23:20:05 49° NNW visible
28 Jul 6.3 19:15:02 10° W 19:53:23 71° N 20:58:16 33° NE visible
28 Jul 6.2 23:19:15 10° W 00:24:54 38° NW 01:19:17 10° N visible
29 Jul 5.6 16:43:02 10° WNW 17:01:11 68° NNE 18:22:45 10° E visible
29 Jul 6.5 20:34:50 10° W 21:26:20 63° NNW 22:12:48 43° NNE visible
30 Jul 6.3 00:55:20 10° W 01:48:06 22° WNW 02:29:06 10° NNW visible
30 Jul 5.9 18:00:05 10° WNW 18:26:06 72° N 19:50:58 15° ENE visible
30 Jul 6.4 21:56:41 10° W 22:57:19 50° NW 00:04:53 10° NNE visible
31 Jul 6.3 19:17:59 10° W 19:55:11 69° NNW 21:05:32 27° NE visible
31 Jul 6.3 23:22:50 10° W 00:23:52 34° NW 01:19:20 10° N visible
01 Aug 5.5 16:45:24 10° WNW 17:02:58 69° NNE 18:23:37 10° E visible
01 Aug 6.5 20:37:07 10° W 21:26:20 59° NNW 22:20:14 35° NNE visible
